• In Germany
  • List of Countries
  • For 7 days
  • Water Temperature
  • Satellite Maps
  • Weather Map
  • Weather Widgets
  • user-avatar
    Login

    Hourly Weather Artashat

    Today, 19 June, Tuesday

    Time Temperature Precipitation Wind Pressure Humidity
    00:00 +14°C° 0 mm 2 mps 600 mmHg 50%
    01:00 +13°C° 0 mm 2 mps 600 mmHg 52%
    02:00 +13°C° 0 mm 2 mps 599 mmHg 54%
    03:00 +13°C° 0 mm 1 mps 599 mmHg 56%
    04:00 +13°C° 0 mm 1 mps 600 mmHg 55%
    05:00 +14°C° 0 mm 1 mps 601 mmHg 54%
    06:00 +15°C° 0 mm 1 mps 601 mmHg 53%
    07:00 +16°C° 0 mm 1 mps 602 mmHg 49%
    08:00 +18°C° 0 mm 1 mps 602 mmHg 44%
    09:00 +20°C° 0 mm 1 mps 603 mmHg 39%
    10:00 +21°C° 0 mm 1 mps 603 mmHg 37%
    11:00 +22°C° 0 mm 1 mps 603 mmHg 34%
    12:00 +23°C° 0 mm 1 mps 604 mmHg 32%
    13:00 +23°C° 0 mm 1 mps 604 mmHg 31%
    14:00 +24°C° 0 mm 2 mps 604 mmHg 29%
    15:00 +24°C° 0 mm 2 mps 604 mmHg 28%
    16:00 +24°C° 0 mm 2 mps 604 mmHg 29%
    17:00 +24°C° 0 mm 2 mps 604 mmHg 31%
    18:00 +23°C° 0 mm 2 mps 604 mmHg 32%
    19:00 +20°C° 0 mm 2 mps 603 mmHg 38%
    20:00 +19°C° 0 mm 1 mps 603 mmHg 43%
    21:00 +16°C° 0 mm 1 mps 602 mmHg 49%
    22:00 +16°C° 0 mm 1 mps 602 mmHg 50%
    23:00 +15°C° 0 mm 1 mps 602 mmHg 52%

    Tomorrow, 20 June, Wednesday

    Time Temperature Precipitation Wind Pressure Humidity
    00:00 +15°C° 0 mm 1 mps 602 mmHg 54%
    01:00 +14°C° 0 mm 1 mps 602 mmHg 55%
    02:00 +14°C° 0 mm 1 mps 602 mmHg 57%
    03:00 +13°C° 0 mm 1 mps 602 mmHg 58%
    04:00 +14°C° 0 mm 1 mps 602 mmHg 57%
    05:00 +15°C° 0 mm 1 mps 603 mmHg 55%
    06:00 +16°C° 0 mm 1 mps 603 mmHg 54%
    07:00 +18°C° 0 mm 1 mps 604 mmHg 48%
    08:00 +20°C° 0 mm 1 mps 604 mmHg 43%
    09:00 +21°C° 0 mm 1 mps 605 mmHg 38%
    10:00 +22°C° 0 mm 1 mps 605 mmHg 35%
    11:00 +23°C° 0 mm 2 mps 605 mmHg 32%
    12:00 +24°C° 0 mm 2 mps 605 mmHg 29%
    13:00 +25°C° 0 mm 2 mps 605 mmHg 28%
    14:00 +25°C° 0 mm 2 mps 605 mmHg 28%
    15:00 +25°C° 0 mm 2 mps 605 mmHg 27%
    16:00 +25°C° 0 mm 2 mps 605 mmHg 28%
    17:00 +24°C° 0 mm 2 mps 605 mmHg 30%
    18:00 +24°C° 0 mm 2 mps 605 mmHg 31%
    19:00 +21°C° 0 mm 2 mps 604 mmHg 36%
    20:00 +19°C° 0 mm 2 mps 604 mmHg 40%
    21:00 +17°C° 0 mm 2 mps 604 mmHg 45%
    22:00 +16°C° 0 mm 2 mps 604 mmHg 48%
    23:00 +15°C° 0 mm 2 mps 603 mmHg 50%

    Day after tomorrow, 21 June, Thursday

    Time Temperature Precipitation Wind Pressure Humidity
    00:00 +15°C° 0 mm 1 mps 603 mmHg 53%
    01:00 +14°C° 0 mm 1 mps 603 mmHg 55%
    02:00 +14°C° 0 mm 1 mps 603 mmHg 57%
    03:00 +13°C° 0 mm 1 mps 603 mmHg 59%
    04:00 +14°C° 0 mm 1 mps 603 mmHg 57%
    05:00 +15°C° 0 mm 1 mps 604 mmHg 56%
    06:00 +15°C° 0 mm 1 mps 604 mmHg 54%
    07:00 +18°C° 0 mm 1 mps 604 mmHg 49%
    08:00 +19°C° 0 mm 1 mps 605 mmHg 43%
    09:00 +20°C° 0 mm 2 mps 605 mmHg 38%
    10:00 +21°C° 0 mm 2 mps 605 mmHg 35%
    11:00 +23°C° 0 mm 2 mps 605 mmHg 32%
    12:00 +25°C° 0 mm 2 mps 606 mmHg 29%
    13:00 +25°C° 0 mm 3 mps 605 mmHg 28%
    14:00 +26°C° 0 mm 3 mps 605 mmHg 27%
    15:00 +26°C° 0 mm 3 mps 605 mmHg 26%
    16:00 +26°C° 0 mm 3 mps 605 mmHg 27%
    17:00 +25°C° 0 mm 3 mps 605 mmHg 27%
    18:00 +25°C° 0 mm 3 mps 604 mmHg 28%
    19:00 +23°C° 0 mm 2 mps 604 mmHg 33%
    20:00 +20°C° 0 mm 2 mps 604 mmHg 38%
    21:00 +18°C° 0 mm 2 mps 603 mmHg 43%
    22:00 +17°C° 0 mm 2 mps 603 mmHg 46%
    23:00 +16°C° 0 mm 1 mps 602 mmHg 49%

    22 June, Friday

    Time Temperature Precipitation Wind Pressure Humidity
    00:00 +15°C° 0 mm 1 mps 602 mmHg 51%
    01:00 +15°C° 0 mm 1 mps 602 mmHg 53%
    02:00 +14°C° 0 mm 1 mps 601 mmHg 55%
    03:00 +14°C° 0 mm 1 mps 601 mmHg 57%
    04:00 +15°C° 0 mm 1 mps 602 mmHg 55%
    05:00 +16°C° 0 mm 1 mps 602 mmHg 54%
    06:00 +16°C° 0 mm 1 mps 602 mmHg 52%
    07:00 +19°C° 0 mm 1 mps 603 mmHg 47%
    08:00 +20°C° 0 mm 1 mps 603 mmHg 41%
    09:00 +21°C° 0 mm 2 mps 603 mmHg 35%
    10:00 +23°C° 0 mm 2 mps 603 mmHg 32%
    11:00 +24°C° 0 mm 2 mps 603 mmHg 29%
    12:00 +25°C° 0 mm 2 mps 603 mmHg 26%
    13:00 +26°C° 0 mm 2 mps 603 mmHg 26%
    14:00 +26°C° 0 mm 2 mps 603 mmHg 25%
    15:00 +26°C° 0 mm 2 mps 603 mmHg 24%
    16:00 +26°C° 0 mm 2 mps 603 mmHg 25%
    17:00 +26°C° 0 mm 2 mps 603 mmHg 26%
    18:00 +25°C° 0 mm 2 mps 603 mmHg 26%
    19:00 +23°C° 0 mm 2 mps 602 mmHg 31%
    20:00 +20°C° 0 mm 2 mps 602 mmHg 35%
    21:00 +18°C° 0 mm 2 mps 601 mmHg 39%
    22:00 +17°C° 0 mm 2 mps 601 mmHg 41%
    23:00 +17°C° 0 mm 2 mps 601 mmHg 43%

    23 June, Saturday

    Time Temperature Precipitation Wind Pressure Humidity
    00:00 +16°C° 0 mm 2 mps 601 mmHg 44%
    01:00 +15°C° 0 mm 2 mps 601 mmHg 45%
    02:00 +15°C° 0 mm 2 mps 600 mmHg 47%
    03:00 +14°C° 0 mm 1 mps 600 mmHg 48%
    04:00 +15°C° 0 mm 1 mps 600 mmHg 48%
    05:00 +16°C° 0 mm 1 mps 601 mmHg 48%
    06:00 +18°C° 0 mm 1 mps 601 mmHg 48%
    07:00 +19°C° 0 mm 1 mps 602 mmHg 43%
    08:00 +21°C° 0 mm 1 mps 602 mmHg 38%
    09:00 +22°C° 0 mm 1 mps 603 mmHg 34%
    10:00 +23°C° 0 mm 1 mps 603 mmHg 31%
    11:00 +24°C° 0 mm 1 mps 603 mmHg 29%
    12:00 +25°C° 0 mm 2 mps 603 mmHg 27%
    13:00 +26°C° 0 mm 2 mps 603 mmHg 26%
    14:00 +26°C° 0 mm 2 mps 603 mmHg 25%
    15:00 +26°C° 0 mm 2 mps 603 mmHg 24%
    16:00 +26°C° 0 mm 2 mps 603 mmHg 25%
    17:00 +26°C° 0 mm 2 mps 603 mmHg 26%
    18:00 +25°C° 0 mm 2 mps 603 mmHg 27%
    19:00 +23°C° 0 mm 2 mps 602 mmHg 32%
    20:00 +20°C° 0 mm 2 mps 602 mmHg 36%
    21:00 +18°C° 0 mm 2 mps 602 mmHg 40%
    22:00 +18°C° 0 mm 2 mps 602 mmHg 43%
    23:00 +17°C° 0 mm 2 mps 601 mmHg 45%

    24 June, Sunday

    Time Temperature Precipitation Wind Pressure Humidity
    00:00 +16°C° 0 mm 2 mps 601 mmHg 47%
    01:00 +15°C° 0 mm 2 mps 601 mmHg 49%
    02:00 +15°C° 0 mm 2 mps 601 mmHg 51%
    03:00 +14°C° 0 mm 1 mps 601 mmHg 53%
    04:00 +15°C° 0 mm 1 mps 601 mmHg 52%
    05:00 +16°C° 0 mm 1 mps 602 mmHg 52%
    06:00 +18°C° 0 mm 1 mps 603 mmHg 51%
    07:00 +19°C° 0 mm 1 mps 603 mmHg 45%
    08:00 +20°C° 0 mm 2 mps 603 mmHg 40%
    09:00 +23°C° 0 mm 2 mps 604 mmHg 34%
    10:00 +24°C° 0 mm 2 mps 604 mmHg 31%
    11:00 +25°C° 0 mm 2 mps 604 mmHg 28%
    12:00 +26°C° 0 mm 2 mps 605 mmHg 25%
    13:00 +27°C° 0 mm 2 mps 605 mmHg 23%
    14:00 +28°C° 0 mm 2 mps 605 mmHg 22%
    15:00 +29°C° 0 mm 2 mps 605 mmHg 20%
    16:00 +28°C° 0 mm 2 mps 605 mmHg 22%
    17:00 +28°C° 0 mm 2 mps 605 mmHg 23%
    18:00 +27°C° 0 mm 3 mps 605 mmHg 24%
    19:00 +25°C° 0 mm 2 mps 604 mmHg 29%
    20:00 +23°C° 0 mm 2 mps 604 mmHg 34%
    21:00 +20°C° 0 mm 2 mps 604 mmHg 38%
    22:00 +19°C° 0 mm 2 mps 603 mmHg 41%
    23:00 +18°C° 0 mm 2 mps 603 mmHg 44%
    Show more